DW9792 Weather Reports


Display with metric or nautical units.
time (UTC)temp
F
wind
direction
speed
MPH
gust
MPH
rain 1hr
in
rain 24hr
in
rain mn
in
humidity
%
barometer
mb
20260506133006 75 234 6.0 16.0 0.00 0.00 0.00 69 1016.8
20260506131508 74 221 4.0 7.0 0.00 0.00 0.00 71 1016.7
20260506130006 72 228 4.0 9.0 0.00 0.00 0.00 73 1016.6
20260506124507 72 261 3.0 8.0 0.00 0.00 0.00 76 1016.6
20260506123007 70 250 2.0 5.0 0.00 0.00 0.00 79 1016.6
20260506121516 69 229 2.0 5.0 0.00 0.00 0.00 80 1016.5
20260506120014 68 122 1.0 4.0 0.00 0.00 0.00 84 1016.4
20260506114514 65 325 1.0 5.0 0.00 0.00 0.00 89 1016.5
20260506113015 63 229 1.0 3.0 0.00 0.00 0.00 95 1016.5
20260506111517 59 132 0.0 0.0 0.00 0.00 0.00 94 1016.6
20260506110016 57 132 0.0 0.0 0.00 0.00 0.00 94 1016.6
20260506104539 56 136 0.0 2.0 0.00 0.00 0.00 94 1016.2
20260506103018 55 180 0.0 2.0 0.00 0.00 0.00 94 1016.2
20260506101518 55 180 0.0 0.0 0.00 0.00 0.00 94 1016.1
20260506100019 55 180 0.0 0.0 0.00 0.00 0.00 93 1016.2
20260506094518 55 180 0.0 0.0 0.00 0.00 0.00 93 1016.2
20260506093017 55 180 0.0 0.0 0.00 0.00 0.00 93 1016.2
20260506091504 55 180 0.0 2.0 0.00 0.00 0.00 93 1016.3
20260506090007 55 180 0.0 0.0 0.00 0.00 0.00 93 1016.3
20260506084512 56 180 0.0 2.0 0.00 0.00 0.00 93 1016.4
20260506083030 56 180 0.0 0.0 0.00 0.00 0.00 93 1016.5
20260506081513 56 180 0.0 0.0 0.00 0.00 0.00 93 1016.4
20260506073015 56 178 0.0 2.0 0.00 0.00 0.00 92 1016.4
20260506071515 56 178 0.0 2.0 0.00 0.00 0.00 92 1016.5
20260506061516 57 178 0.0 0.0 0.00 0.00 0.00 91 1016.7
20260506044526 60 178 0.0 2.0 0.00 0.00 0.00 87 1017.8
20260506043019 61 166 0.0 2.0 0.00 0.00 0.00 86 1017.9
20260506041514 61 246 0.0 3.0 0.00 0.00 0.00 1017.9
20260506040033 62 124 0.0 2.0 0.00 0.00 0.00 84 1018.0
20260506034524 62 164 0.0 2.0 0.00 0.00 0.00 83 1018.1
20260506033026 63 198 0.0 2.0 0.00 0.00 0.00 82 1018.1
20260506031524 63 81 0.0 2.0 0.00 0.00 0.00 80 1018.1
20260506030021 64 96 0.0 2.0 0.00 0.00 0.00 79 1018.3
20260506024528 64 215 0.0 3.0 0.00 0.00 0.00 78 1018.3
20260506023026 65 136 0.0 2.0 0.00 0.00 0.00 76 1018.3
20260506021541 65 121 1.0 2.0 0.00 0.00 0.00 75 1018.3
20260506020024 65 186 1.0 3.0 0.00 0.00 0.00 74 1018.2
20260506014525 65 132 0.0 4.0 0.00 0.00 0.00 74 1018.0
20260506013024 66 189 0.0 3.0 0.00 0.00 0.00 72 1018.1
20260506011527 66 163 0.0 4.0 0.00 0.00 0.00 71 1017.9
20260506010036 66 237 0.0 5.0 0.00 0.00 0.00 70 1017.8
20260506004526 67 109 1.0 4.0 0.00 0.00 0.00 68 1017.7
20260506003023 68 193 2.0 7.0 0.00 0.00 0.00 67 1017.7
20260506001507 68 98 1.0 9.0 0.00 0.00 0.00 65 1017.8
20260506000011 69 198 2.0 10.0 0.00 0.00 0.00 64 1017.7
20260505234518 69 202 3.0 8.0 0.00 0.00 0.00 63 1017.6
20260505233022 70 298 1.0 9.0 0.00 0.00 0.00 61 1017.6
20260505231504 71 198 2.0 9.0 0.00 0.00 0.00 59 1017.6
20260505230009 71 234 4.0 14.0 0.00 0.00 0.00 57 1017.6
20260505224524 72 104 4.0 16.0 0.00 0.00 0.00 56 1017.6
20260505223019 73 241 5.0 14.0 0.00 0.00 0.00 57 1017.7
20260505221524 73 273 5.0 10.0 0.00 0.00 0.00 56 1017.6
20260505220008 73 202 6.0 14.0 0.00 0.00 0.00 56 1017.6
20260505214515 73 244 5.0 13.0 0.00 0.00 0.00 56 1017.6
20260505213019 74 161 3.0 11.0 0.00 0.00 0.00 56 1017.4
20260505211535 74 182 5.0 12.0 0.00 0.00 0.00 56 1017.4
20260505210024 74 251 4.0 14.0 0.00 0.00 0.00 57 1017.5
20260505204511 74 309 4.0 12.0 0.00 0.00 0.00 57 1017.4
20260505203015 75 234 5.0 15.0 0.00 0.00 0.00 55 1017.4
20260505201523 76 161 5.0 14.0 0.00 0.00 0.00 53 1017.6
20260505200025 76 210 4.0 14.0 0.00 0.00 0.00 53 1017.8
20260505194526 76 242 7.0 16.0 0.00 0.00 0.00 53 1018.2
20260505193014 77 72 3.0 12.0 0.00 0.00 0.00 50 1018.2
20260505191520 77 217 7.0 14.0 0.00 0.00 0.00 50 1018.4
20260505190023 77 244 4.0 17.0 0.00 0.00 0.00 52 1018.5
20260505184534 77 148 3.0 14.0 0.00 0.00 0.00 50 1018.4
20260505183037 77 180 4.0 12.0 0.00 0.00 0.00 52 1018.5
20260505181521 77 126 5.0 13.0 0.00 0.00 0.00 48 1018.6
20260505180023 78 192 3.0 11.0 0.00 0.00 0.00 48 1018.3
20260505174528 78 271 4.0 14.0 0.00 0.00 0.00 49 1018.4
20260505173027 78 263 3.0 12.0 0.00 0.00 0.00 50 1018.3
20260505171517 78 250 2.0 10.0 0.00 0.00 0.00 50 1018.3
20260505170033 78 98 3.0 8.0 0.00 0.00 0.00 50 1018.5
20260505164525 77 232 2.0 11.0 0.00 0.00 0.00 49 1018.7
20260505163028 77 185 5.0 15.0 0.00 0.00 0.00 51 1018.8
20260505161527 76 185 2.0 11.0 0.00 0.00 0.00 51 1018.9
20260505153026 75 243 6.0 12.0 0.00 0.00 0.00 53 1018.9
20260505151517 75 227 1.0 11.0 0.00 0.00 0.00 53 1019.2